• In Portugal
  • List of Countries
  • For 7 days
  • Water Temperature
  • Satellite Maps
  • Weather Map
  • Weather Widgets
  • user-avatar
    Login

    Hourly Weather Mandalay

    Today, 11 December, Monday

    Time Temperature Precipitation Wind Pressure Humidity
    00:00 +23°C° 0 mm 0 mps 754 mmHg 89%
    01:00 +23°C° 0.4 mm 0 mps 754 mmHg 89%
    02:00 +23°C° 0.4 mm 0 mps 754 mmHg 89%
    03:00 +23°C° 0.4 mm 0 mps 754 mmHg 89%
    04:00 +23°C° 0.2 mm 0 mps 754 mmHg 89%
    05:00 +23°C° 0.2 mm 0 mps 754 mmHg 89%
    06:00 +23°C° 0 mm 0 mps 754 mmHg 89%
    07:00 +24°C° 0.1 mm 0 mps 754 mmHg 86%
    08:00 +25°C° 0.1 mm 0 mps 754 mmHg 82%
    09:00 +28°C° 0.1 mm 1 mps 755 mmHg 79%
    10:00 +29°C° 0.1 mm 1 mps 754 mmHg 76%
    11:00 +30°C° 0.1 mm 1 mps 754 mmHg 72%
    12:00 +31°C° 0 mm 1 mps 753 mmHg 68%
    13:00 +31°C° 0.1 mm 1 mps 752 mmHg 67%
    14:00 +31°C° 0.1 mm 1 mps 752 mmHg 66%
    15:00 +31°C° 0.1 mm 1 mps 751 mmHg 65%
    16:00 +30°C° 0 mm 1 mps 751 mmHg 70%
    17:00 +29°C° 0 mm 1 mps 752 mmHg 75%
    18:00 +27°C° 0 mm 1 mps 752 mmHg 80%
    19:00 +27°C° 0.1 mm 1 mps 752 mmHg 81%
    20:00 +26°C° 0.1 mm 1 mps 753 mmHg 83%
    21:00 +26°C° 0.1 mm 1 mps 753 mmHg 85%
    22:00 +26°C° 0.2 mm 1 mps 753 mmHg 85%
    23:00 +26°C° 0.2 mm 1 mps 753 mmHg 86%

    Tomorrow, 12 December, Tuesday

    Time Temperature Precipitation Wind Pressure Humidity
    00:00 +25°C° 0.2 mm 1 mps 753 mmHg 86%
    01:00 +25°C° 0 mm 1 mps 753 mmHg 86%
    02:00 +25°C° 0 mm 1 mps 753 mmHg 86%
    03:00 +25°C° 0 mm 1 mps 753 mmHg 86%
    04:00 +25°C° 0.1 mm 1 mps 753 mmHg 86%
    05:00 +25°C° 0.1 mm 1 mps 753 mmHg 86%
    06:00 +25°C° 0.1 mm 1 mps 753 mmHg 86%
    07:00 +26°C° 0.1 mm 1 mps 754 mmHg 83%
    08:00 +27°C° 0.1 mm 1 mps 754 mmHg 80%
    09:00 +28°C° 0.1 mm 1 mps 755 mmHg 77%
    10:00 +29°C° 0.2 mm 1 mps 754 mmHg 74%
    11:00 +30°C° 0.2 mm 1 mps 753 mmHg 71%
    12:00 +31°C° 0.2 mm 1 mps 753 mmHg 68%
    13:00 +31°C° 0.3 mm 1 mps 752 mmHg 68%
    14:00 +31°C° 0.3 mm 1 mps 751 mmHg 67%
    15:00 +31°C° 0.3 mm 1 mps 751 mmHg 66%
    16:00 +30°C° 0.1 mm 1 mps 751 mmHg 72%
    17:00 +28°C° 0.1 mm 1 mps 751 mmHg 77%
    18:00 +27°C° 0.1 mm 1 mps 751 mmHg 82%
    19:00 +27°C° 0 mm 1 mps 752 mmHg 83%
    20:00 +26°C° 0 mm 1 mps 752 mmHg 85%
    21:00 +26°C° 0 mm 1 mps 753 mmHg 86%
    22:00 +25°C° 0 mm 1 mps 753 mmHg 86%
    23:00 +25°C° 0 mm 1 mps 753 mmHg 87%

    Day after tomorrow, 13 December, Wednesday

    Time Temperature Precipitation Wind Pressure Humidity
    00:00 +25°C° 0 mm 1 mps 753 mmHg 87%
    01:00 +25°C° 0 mm 1 mps 752 mmHg 88%
    02:00 +24°C° 0 mm 1 mps 752 mmHg 88%
    03:00 +24°C° 0 mm 1 mps 752 mmHg 89%
    04:00 +24°C° 0 mm 1 mps 752 mmHg 89%
    05:00 +24°C° 0 mm 1 mps 753 mmHg 90%
    06:00 +23°C° 0 mm 1 mps 753 mmHg 90%
    07:00 +25°C° 0 mm 1 mps 754 mmHg 84%
    08:00 +27°C° 0 mm 1 mps 754 mmHg 77%
    09:00 +27°C° 0 mm 0 mps 755 mmHg 71%
    10:00 +30°C° 0 mm 1 mps 754 mmHg 66%
    11:00 +30°C° 0 mm 1 mps 754 mmHg 62%
    12:00 +31°C° 0 mm 2 mps 753 mmHg 57%
    13:00 +31°C° 0 mm 2 mps 753 mmHg 58%
    14:00 +31°C° 0 mm 2 mps 752 mmHg 58%
    15:00 +31°C° 0 mm 2 mps 751 mmHg 59%
    16:00 +29°C° 0 mm 2 mps 752 mmHg 65%
    17:00 +28°C° 0 mm 1 mps 752 mmHg 71%
    18:00 +26°C° 0 mm 1 mps 752 mmHg 77%
    19:00 +25°C° 0 mm 1 mps 753 mmHg 79%
    20:00 +25°C° 0 mm 1 mps 753 mmHg 81%
    21:00 +24°C° 0 mm 1 mps 754 mmHg 83%
    22:00 +24°C° 0 mm 1 mps 754 mmHg 83%
    23:00 +24°C° 0 mm 1 mps 754 mmHg 84%

    14 December, Thursday

    Time Temperature Precipitation Wind Pressure Humidity
    00:00 +23°C° 0 mm 1 mps 754 mmHg 85%
    01:00 +23°C° 0 mm 1 mps 753 mmHg 86%
    02:00 +22°C° 0 mm 1 mps 753 mmHg 86%
    03:00 +22°C° 0 mm 1 mps 753 mmHg 86%
    04:00 +22°C° 0 mm 1 mps 753 mmHg 87%
    05:00 +21°C° 0 mm 1 mps 753 mmHg 87%
    06:00 +21°C° 0 mm 1 mps 754 mmHg 87%
    07:00 +23°C° 0 mm 1 mps 754 mmHg 80%
    08:00 +25°C° 0 mm 1 mps 755 mmHg 73%
    09:00 +27°C° 0 mm 1 mps 756 mmHg 65%
    10:00 +28°C° 0 mm 1 mps 755 mmHg 60%
    11:00 +30°C° 0 mm 2 mps 754 mmHg 54%
    12:00 +31°C° 0 mm 2 mps 754 mmHg 49%
    13:00 +31°C° 0 mm 2 mps 753 mmHg 49%
    14:00 +31°C° 0 mm 2 mps 753 mmHg 50%
    15:00 +31°C° 0 mm 2 mps 752 mmHg 50%
    16:00 +29°C° 0 mm 2 mps 753 mmHg 57%
    17:00 +27°C° 0 mm 1 mps 753 mmHg 63%
    18:00 +25°C° 0 mm 1 mps 753 mmHg 69%
    19:00 +24°C° 0 mm 1 mps 754 mmHg 71%
    20:00 +24°C° 0 mm 1 mps 754 mmHg 72%
    21:00 +23°C° 0 mm 1 mps 754 mmHg 74%
    22:00 +23°C° 0 mm 1 mps 754 mmHg 75%
    23:00 +22°C° 0 mm 1 mps 754 mmHg 76%

    15 December, Friday

    Time Temperature Precipitation Wind Pressure Humidity
    00:00 +22°C° 0 mm 1 mps 754 mmHg 76%
    01:00 +22°C° 0 mm 1 mps 754 mmHg 77%
    02:00 +21°C° 0 mm 1 mps 754 mmHg 78%
    03:00 +21°C° 0 mm 1 mps 753 mmHg 79%
    04:00 +20°C° 0 mm 1 mps 754 mmHg 79%
    05:00 +20°C° 0 mm 1 mps 754 mmHg 80%
    06:00 +20°C° 0 mm 1 mps 754 mmHg 80%
    07:00 +22°C° 0 mm 1 mps 755 mmHg 74%
    08:00 +24°C° 0 mm 1 mps 755 mmHg 67%
    09:00 +26°C° 0 mm 1 mps 756 mmHg 60%
    10:00 +28°C° 0 mm 1 mps 755 mmHg 56%
    11:00 +29°C° 0 mm 2 mps 755 mmHg 51%
    12:00 +30°C° 0 mm 2 mps 754 mmHg 47%
    13:00 +30°C° 0 mm 2 mps 753 mmHg 48%
    14:00 +30°C° 0 mm 2 mps 753 mmHg 48%
    15:00 +30°C° 0 mm 2 mps 752 mmHg 49%
    16:00 +28°C° 0 mm 2 mps 753 mmHg 55%
    17:00 +26°C° 0 mm 1 mps 753 mmHg 61%
    18:00 +24°C° 0 mm 1 mps 754 mmHg 67%
    19:00 +23°C° 0 mm 1 mps 754 mmHg 68%
    20:00 +23°C° 0 mm 1 mps 755 mmHg 70%
    21:00 +22°C° 0 mm 1 mps 755 mmHg 72%
    22:00 +22°C° 0 mm 1 mps 755 mmHg 73%
    23:00 +21°C° 0 mm 1 mps 755 mmHg 74%

    16 December, Saturday

    Time Temperature Precipitation Wind Pressure Humidity
    00:00 +21°C° 0 mm 1 mps 755 mmHg 75%
    01:00 +21°C° 0 mm 1 mps 755 mmHg 76%
    02:00 +20°C° 0 mm 1 mps 754 mmHg 77%
    03:00 +20°C° 0 mm 1 mps 754 mmHg 78%
    04:00 +20°C° 0 mm 1 mps 755 mmHg 79%
    05:00 +19°C° 0 mm 1 mps 755 mmHg 80%
    06:00 +19°C° 0 mm 1 mps 755 mmHg 80%
    07:00 +21°C° 0 mm 1 mps 756 mmHg 74%
    08:00 +23°C° 0 mm 1 mps 756 mmHg 67%
    09:00 +26°C° 0 mm 1 mps 757 mmHg 60%
    10:00 +27°C° 0 mm 2 mps 756 mmHg 56%
    11:00 +29°C° 0 mm 2 mps 756 mmHg 52%
    12:00 +30°C° 0 mm 2 mps 755 mmHg 48%
    13:00 +30°C° 0 mm 2 mps 754 mmHg 49%
    14:00 +30°C° 0 mm 2 mps 754 mmHg 49%
    15:00 +30°C° 0 mm 2 mps 753 mmHg 50%
    16:00 +28°C° 0 mm 2 mps 754 mmHg 56%
    17:00 +26°C° 0 mm 2 mps 754 mmHg 62%
    18:00 +24°C° 0 mm 1 mps 754 mmHg 68%
    19:00 +23°C° 0 mm 1 mps 755 mmHg 70%
    20:00 +23°C° 0 mm 1 mps 755 mmHg 71%
    21:00 +22°C° 0 mm 1 mps 756 mmHg 72%
    22:00 +22°C° 0 mm 1 mps 756 mmHg 73%
    23:00 +22°C° 0 mm 1 mps 756 mmHg 73%
    Show more